Alpena, MI

7:40 PM EDT on August 30, 2016 (GMT -0400)
Alpena County Regional

Weather History for KAPN - March, 2013

Change the Weather History Date:

Saturday, March 9, 2013

  Actual Average Record
Temperature  
Mean Temperature 28 °F 26 °F  
Max Temperature 40 °F 35 °F 67 °F (2000)
Min Temperature 15 °F 16 °F -17 °F (1960)
Degree Days  
Heating Degree Days 37 39  
Month to date heating degree days 376 363  
Since 1 July heating degree days 5686 6095  
Cooling Degree Days 0 0  
Month to date cooling degree days 0 0  
Year to date cooling degree days 0 0  
Moisture  
Dew Point 24 °F    
Average Humidity 80    
Maximum Humidity 100    
Minimum Humidity 59    
Precipitation  
Precipitation T in 0.06 in 1.03 in (1942)
Month to date precipitation 0.03 0.52  
Year to date precipitation 4.51 3.50  
Snow  
Snow 0.00 in 0.50 in 11.60 in (1928)
Month to date snowfall 0.4 4.5  
Since 1 July snowfall 38.7 70.6  
Snow Depth 5.00 in    
Sea Level Pressure  
Sea Level Pressure 30.26 in    
Wind  
Wind Speed 7 mph (SE)    
Max Wind Speed 21 mph    
Max Gust Speed 25 mph    
Visibility 9 miles    
Events      
T = Trace of Precipitation, MM = Missing Value Source: NWS Daily Summary

Daily Weather History Graph

Daily Weather History Graph

Search for Another Location

Airport or City:

Trip Planner

Search our weather history database for the weather conditions in past years. The results will help you decide how hot, cold, wet, or windy it might be!

Date:

Astronomy

Mar. 09, 2013 Rise Set
Actual Time 6:57 AM EST 6:32 PM EST
Civil Twilight 6:28 AM EST 7:02 PM EST
Nautical Twilight 5:54 AM EST 7:36 PM EST
Astronomical Twilight 5:19 AM EST 8:10 PM EST
Moon 5:25 AM EST (3/9) 4:30 PM EST (3/9)
Length of Visible Light 12h 33m
Length of Day
11h 35m
Waning Crescent, 5% of the Moon is Illuminated
Mar 9
Waning Crescent
Mar 11
New
Mar 19
First Quarter
Mar 27
Full
Apr 3
Last Quarter

Hourly Weather History & Observations

Time (EST) Temp. Windchill Dew Point Humidity Pressure Visibility Wind Dir Wind Speed Gust Speed Precip Events Conditions
12:07 AM 24.8 °F 20.5 °F 21.2 °F 86% 30.38 in 4.0 mi South 3.5 mph - N/A   Clear
12:54 AM 23.0 °F - 19.0 °F 85% 30.40 in 10.0 mi Calm Calm - N/A   Clear
1:54 AM 21.9 °F - 19.0 °F 89% 30.39 in 8.0 mi Calm Calm - N/A   Clear
2:54 AM 19.0 °F - 15.1 °F 85% 30.38 in 9.0 mi Calm Calm - N/A   Clear
3:54 AM 19.0 °F - 14.0 °F 81% 30.37 in 8.0 mi Calm Calm - N/A   Clear
4:54 AM 17.1 °F - 12.9 °F 84% 30.37 in 9.0 mi Calm Calm - N/A   Clear
5:54 AM 16.0 °F - 12.9 °F 88% 30.38 in 10.0 mi Calm Calm - N/A   Clear
6:54 AM 16.0 °F - 12.0 °F 84% 30.38 in 10.0 mi Calm Calm - N/A   Clear
7:54 AM 18.0 °F - 16.0 °F 92% 30.37 in 10.0 mi Calm Calm - N/A   Clear
8:54 AM 25.0 °F - 24.1 °F 96% 30.36 in 10.0 mi Calm Calm - N/A   Clear
9:54 AM 33.1 °F 25.5 °F 27.0 °F 78% 30.35 in 10.0 mi South 9.2 mph - N/A   Clear
10:54 AM 37.9 °F 30.9 °F 25.0 °F 60% 30.32 in 10.0 mi South 10.4 mph - N/A   Clear
11:54 AM 39.0 °F 31.4 °F 26.1 °F 60% 30.30 in 10.0 mi SSE 12.7 mph - N/A   Clear
12:54 PM 39.0 °F 30.3 °F 26.1 °F 60% 30.29 in 10.0 mi South 16.1 mph - N/A   Clear
1:54 PM 37.9 °F 31.5 °F 28.0 °F 68% 30.25 in 10.0 mi East 9.2 mph - N/A   Clear
2:54 PM 39.0 °F 31.8 °F 28.0 °F 65% 30.22 in 10.0 mi ESE 11.5 mph - N/A   Clear
3:54 PM 36.0 °F 28.0 °F 27.0 °F 70% 30.22 in 10.0 mi SE 11.5 mph - N/A   Clear
4:54 PM 34.0 °F 25.5 °F 28.9 °F 82% 30.21 in 8.0 mi ESE 11.5 mph - N/A   Partly Cloudy
5:54 PM 33.1 °F 23.0 °F 28.9 °F 85% 30.16 in 9.0 mi SE 15.0 mph 23.0 mph N/A   Overcast
6:05 PM 32.0 °F 21.2 °F 28.4 °F 87% 30.11 in 8.0 mi SE 16.1 mph 24.2 mph N/A   Overcast
6:27 PM 32.0 °F 22.1 °F 30.2 °F 93% 30.12 in 8.0 mi SE 13.8 mph - N/A   Overcast
6:54 PM 33.1 °F 23.9 °F 30.0 °F 89% 30.15 in 9.0 mi SSE 12.7 mph - N/A   Overcast
7:54 PM 34.0 °F 27.2 °F 28.9 °F 82% 30.13 in 10.0 mi SE 8.1 mph - N/A   Overcast
8:54 PM 34.0 °F 26.0 °F 30.0 °F 85% 30.10 in 10.0 mi SE 10.4 mph - N/A   Overcast
9:54 PM 34.0 °F 28.0 °F 30.0 °F 85% 30.09 in 9.0 mi SE 6.9 mph - N/A   Overcast
10:54 PM 34.0 °F 28.8 °F 30.0 °F 85% 30.09 in 10.0 mi ESE 5.8 mph - N/A   Overcast
11:54 PM 35.1 °F 31.0 °F 28.9 °F 78% 30.08 in 10.0 mi ESE 4.6 mph - 0.00 in   Overcast